TimeEDT,TemperatureF,Dew PointF,Humidity,Sea Level PressureIn,VisibilityMPH,Wind Direction,Wind SpeedMPH,Gust SpeedMPH,PrecipitationIn,Events,Conditions,WindDirDegrees,DateUTC
12:15 AM,42.8,41.0,93,29.99,3.0,NNE,16.1,29.9,0.05,Rain,Rain,20,2013-04-24 04:15:00
12:35 AM,42.8,41.0,93,29.97,3.0,North,19.6,32.2,0.16,Rain,Light Rain,10,2013-04-24 04:35:00
12:55 AM,41.0,41.0,100,29.96,3.0,North,17.3,28.8,0.27,Rain,Rain,10,2013-04-24 04:55:00
1:15 AM,41.0,41.0,100,29.95,3.0,North,20.7,34.5,0.06,Rain,Light Rain,10,2013-04-24 05:15:00
1:35 AM,41.0,41.0,100,29.93,4.0,North,15.0,26.5,0.11,Rain,Rain,10,2013-04-24 05:35:00
1:55 AM,41.0,41.0,100,29.91,4.0,North,17.3,32.2,0.14,Rain,Light Rain,10,2013-04-24 05:55:00
2:15 AM,41.0,41.0,100,29.89,3.0,North,21.9,35.7,0.01,Rain,Light Rain,10,2013-04-24 06:15:00
2:35 AM,41.0,41.0,100,29.88,4.0,North,20.7,40.3,0.03,Rain,Light Rain,360,2013-04-24 06:35:00
2:55 AM,41.0,41.0,100,29.87,4.0,North,23.0,31.1,0.03,Rain,Light Rain,360,2013-04-24 06:55:00
3:15 AM,41.0,41.0,100,29.85,2.0,North,19.6,28.8,N/A,Rain,Light Rain,10,2013-04-24 07:15:00
3:35 AM,41.0,41.0,100,29.86,3.0,North,15.0,31.1,N/A,Rain,Light Rain,10,2013-04-24 07:35:00
3:55 AM,41.0,41.0,100,29.86,6.0,North,19.6,28.8,N/A,,Overcast,360,2013-04-24 07:55:00
4:15 AM,41.0,41.0,100,29.85,1.8,North,21.9,31.1,0.01,,Overcast,350,2013-04-24 08:15:00
4:35 AM,41.0,41.0,100,29.86,2.0,North,17.3,26.5,0.02,,Overcast,350,2013-04-24 08:35:00
4:55 AM,41.0,41.0,100,29.86,2.0,North,20.7,29.9,0.03,,Overcast,350,2013-04-24 08:55:00
5:15 AM,41.0,41.0,100,29.87,2.5,North,13.8,27.6,N/A,Rain,Light Rain,350,2013-04-24 09:15:00
5:35 AM,41.0,41.0,100,29.86,3.0,North,19.6,28.8,N/A,Rain,Light Rain,350,2013-04-24 09:35:00
5:55 AM,42.8,41.0,93,29.85,5.0,NNW,15.0,27.6,N/A,,Overcast,340,2013-04-24 09:55:00
6:15 AM,42.8,41.0,93,29.86,7.0,North,13.8,26.5,N/A,,Overcast,350,2013-04-24 10:15:00
6:35 AM,42.8,41.0,93,29.87,10.0,NNW,23.0,31.1,N/A,,Overcast,340,2013-04-24 10:35:00
6:55 AM,42.8,41.0,93,29.88,10.0,NNW,19.6,31.1,N/A,,Overcast,330,2013-04-24 10:55:00
7:15 AM,42.8,41.0,93,29.90,10.0,NW,13.8,21.9,N/A,,Overcast,320,2013-04-24 11:15:00
7:35 AM,42.8,41.0,93,29.90,9.0,NNW,15.0,25.3,N/A,,Overcast,330,2013-04-24 11:35:00
7:55 AM,42.8,41.0,93,29.91,3.0,NNW,13.8,24.2,N/A,,Overcast,330,2013-04-24 11:55:00
8:15 AM,42.8,41.0,93,29.92,2.0,NNW,15.0,24.2,N/A,,Overcast,340,2013-04-24 12:15:00
8:35 AM,44.6,41.0,87,29.92,5.0,NNW,10.4,-,N/A,,Overcast,340,2013-04-24 12:35:00
8:55 AM,44.6,42.8,93,29.92,10.0,NNW,16.1,23.0,N/A,,Overcast,330,2013-04-24 12:55:00
9:15 AM,44.6,42.8,93,29.93,10.0,NNW,10.4,17.3,N/A,,Overcast,330,2013-04-24 13:15:00
9:35 AM,46.4,42.8,87,29.94,10.0,NW,12.7,20.7,N/A,,Overcast,320,2013-04-24 13:35:00
9:55 AM,46.4,42.8,87,29.94,10.0,NW,13.8,19.6,N/A,,Overcast,320,2013-04-24 13:55:00
10:15 AM,46.4,42.8,87,29.93,10.0,NW,12.7,18.4,N/A,,Overcast,320,2013-04-24 14:15:00
10:35 AM,46.4,44.6,93,29.94,10.0,NW,13.8,19.6,N/A,,Overcast,310,2013-04-24 14:35:00
10:55 AM,48.2,44.6,87,29.93,10.0,NW,11.5,19.6,N/A,,Unknown,320,2013-04-24 14:55:00
11:15 AM,50.0,44.6,82,29.93,10.0,NW,9.2,19.6,N/A,,Unknown,320,2013-04-24 15:15:00
11:35 AM,50.0,44.6,82,29.93,10.0,NW,10.4,-,N/A,,Unknown,310,2013-04-24 15:35:00
11:55 AM,51.8,46.4,82,29.94,10.0,WNW,11.5,-,N/A,,Unknown,300,2013-04-24 15:55:00
12:15 PM,53.6,46.4,77,29.94,10.0,West,11.5,17.3,N/A,,Unknown,280,2013-04-24 16:15:00
12:35 PM,53.6,46.4,77,29.94,10.0,WSW,13.8,-,N/A,,Unknown,250,2013-04-24 16:35:00
12:55 PM,55.4,46.4,72,29.93,10.0,West,15.0,-,N/A,,Unknown,260,2013-04-24 16:55:00
1:15 PM,55.4,46.4,72,29.93,10.0,WSW,15.0,-,N/A,,Unknown,240,2013-04-24 17:15:00
1:35 PM,57.2,46.4,67,29.93,10.0,West,10.4,-,N/A,,Unknown,260,2013-04-24 17:35:00
1:55 PM,57.2,46.4,67,29.92,10.0,WSW,11.5,-,N/A,,Unknown,240,2013-04-24 17:55:00
2:15 PM,57.2,46.4,67,29.92,10.0,WSW,12.7,-,N/A,,Unknown,250,2013-04-24 18:15:00
2:35 PM,59.0,46.4,63,29.91,10.0,SW,12.7,-,N/A,,Clear,230,2013-04-24 18:35:00
2:55 PM,57.2,44.6,63,29.90,10.0,WSW,13.8,-,N/A,,Clear,250,2013-04-24 18:55:00
3:15 PM,57.2,44.6,63,29.91,10.0,SW,18.4,21.9,N/A,,Clear,230,2013-04-24 19:15:00
3:35 PM,57.2,44.6,63,29.90,10.0,SW,16.1,25.3,N/A,,Clear,230,2013-04-24 19:35:00
3:55 PM,57.2,44.6,63,29.91,10.0,SW,17.3,23.0,N/A,,Clear,230,2013-04-24 19:55:00
4:15 PM,57.2,44.6,63,29.91,10.0,SW,19.6,25.3,N/A,,Clear,220,2013-04-24 20:15:00
4:55 PM,55.4,44.6,67,29.92,10.0,WSW,12.7,24.2,N/A,,Clear,240,2013-04-24 20:55:00
5:15 PM,55.4,42.8,63,29.92,10.0,WSW,12.7,25.3,N/A,,Clear,240,2013-04-24 21:15:00
5:35 PM,53.6,42.8,67,29.92,10.0,SW,16.1,28.8,N/A,,Clear,230,2013-04-24 21:35:00
5:55 PM,53.6,42.8,67,29.92,10.0,SW,12.7,21.9,N/A,,Clear,220,2013-04-24 21:55:00
6:15 PM,53.6,42.8,67,29.92,10.0,SW,13.8,26.5,N/A,,Clear,220,2013-04-24 22:15:00
6:35 PM,50.0,42.8,76,29.93,10.0,SW,18.4,24.2,N/A,,Clear,220,2013-04-24 22:35:00
6:55 PM,50.0,42.8,76,29.93,10.0,SW,21.9,25.3,N/A,,Clear,220,2013-04-24 22:55:00
7:15 PM,48.2,42.8,82,29.93,10.0,SW,15.0,24.2,N/A,,Clear,230,2013-04-24 23:15:00
7:35 PM,48.2,42.8,82,29.94,10.0,SW,15.0,20.7,N/A,,Clear,230,2013-04-24 23:35:00
7:55 PM,48.2,42.8,82,29.94,10.0,SW,17.3,21.9,N/A,,Clear,220,2013-04-24 23:55:00
8:15 PM,48.2,42.8,82,29.94,10.0,SSW,21.9,26.5,N/A,,Clear,210,2013-04-25 00:15:00
8:35 PM,48.2,44.6,87,29.94,10.0,SW,19.6,27.6,N/A,,Clear,220,2013-04-25 00:35:00
8:55 PM,48.2,46.4,93,29.95,10.0,SW,16.1,28.8,N/A,,Partly Cloudy,220,2013-04-25 00:55:00
9:15 PM,50.0,46.4,87,29.95,10.0,SW,18.4,25.3,N/A,,Mostly Cloudy,220,2013-04-25 01:15:00
9:35 PM,50.0,48.2,94,29.96,10.0,SW,17.3,21.9,N/A,,Overcast,220,2013-04-25 01:35:00
9:55 PM,50.0,48.2,94,29.96,10.0,SW,15.0,26.5,N/A,,Overcast,220,2013-04-25 01:55:00
11:15 PM,50.0,48.2,94,29.97,5.0,WSW,15.0,23.0,N/A,,Overcast,240,2013-04-25 03:15:00
11:35 PM,50.0,48.2,94,29.97,5.0,SSW,16.1,24.2,N/A,,Overcast,210,2013-04-25 03:35:00
11:55 PM,50.0,48.2,94,29.96,6.0,SSW,18.4,24.2,N/A,,Overcast,210,2013-04-25 03:55:00